Cameron, WI

6:11 PM CST on February 27, 2017 (GMT -0600)
Rice Lake Regional-Carl's

Weather History for KRPD - September, 2013

Change the Weather History Date:

Monday, September 30, 2013

  Actual Average Record
Temperature  
Mean Temperature 62 °F -  
Max Temperature 73 °F 60 °F 80 °F (2002)
Min Temperature 52 °F 39 °F 30 °F (2003)
Degree Days  
Heating Degree Days 3    
Growing Degree Days 12 (Base 50)    
Moisture  
Dew Point 47 °F    
Average Humidity 59    
Maximum Humidity 74    
Minimum Humidity 41    
Precipitation  
Precipitation 0.00 in - - ()
Sea Level Pressure  
Sea Level Pressure 29.75 in    
Wind  
Wind Speed 10 mph (SSE)    
Max Wind Speed 23 mph    
Max Gust Speed 30 mph    
Visibility 10 miles    
Events      
Averages and records for this station are not official NWS values.
T = Trace of Precipitation, MM = Missing Value Source: NWS Daily Summary

Daily Weather History Graph

Daily Weather History Graph

Search for Another Location

Airport or City:

Trip Planner

Search our weather history database for the weather conditions in past years. The results will help you decide how hot, cold, wet, or windy it might be!

Date:

Astronomy

Sep. 30, 2013 Rise Set
Actual Time 7:04 AM CDT 6:48 PM CDT
Civil Twilight 6:34 AM CDT 7:18 PM CDT
Nautical Twilight 6:00 AM CDT 7:52 PM CDT
Astronomical Twilight 5:25 AM CDT 8:27 PM CDT
Moon 2:30 AM CDT (9/30) 4:29 PM CDT (9/30)
Length of Visible Light 12h 43m
Length of Day
11h 44m
Waning Crescent, 19% of the Moon is Illuminated
Sep 30
Waning Crescent
Oct 4
New
Oct 11
First Quarter
Oct 18
Full
Oct 26
Last Quarter

Hourly Weather History & Observations

Time (CDT) Temp. Dew Point Humidity Pressure Visibility Wind Dir Wind Speed Gust Speed Precip Events Conditions
12:15 AM 55.4 °F 45.1 °F 68% 29.87 in 10.0 mi SE 6.9 mph - N/A   Clear
12:35 AM 54.5 °F 45.0 °F 70% 29.87 in 10.0 mi SE 6.9 mph - N/A   Clear
12:55 AM 54.1 °F 44.8 °F 71% 29.86 in 10.0 mi SE 8.1 mph - N/A   Clear
1:15 AM 53.6 °F 44.8 °F 72% 29.86 in 10.0 mi SE 5.8 mph - N/A   Clear
1:35 AM 53.2 °F 44.6 °F 72% 29.86 in 10.0 mi SE 6.9 mph - N/A   Clear
1:55 AM 53.2 °F 44.6 °F 72% 29.86 in 10.0 mi SE 8.1 mph - N/A   Clear
2:15 AM 53.8 °F 44.6 °F 71% 29.85 in 10.0 mi SE 8.1 mph - N/A   Clear
2:35 AM 53.1 °F 44.6 °F 73% 29.85 in 10.0 mi SE 6.9 mph - N/A   Clear
2:55 AM 52.7 °F 44.6 °F 74% 29.85 in 10.0 mi SE 6.9 mph - N/A   Clear
3:15 AM 52.5 °F 44.6 °F 74% 29.84 in 10.0 mi SE 9.2 mph - N/A   Clear
3:35 AM 52.9 °F 44.6 °F 73% 29.84 in 10.0 mi SE 9.2 mph - N/A   Clear
3:55 AM 52.9 °F 44.6 °F 73% 29.83 in 10.0 mi SE 8.1 mph - N/A   Clear
4:15 AM 53.8 °F 44.8 °F 72% 29.83 in 10.0 mi SE 9.2 mph - N/A   Clear
4:35 AM 54.5 °F 44.8 °F 70% 29.83 in 10.0 mi SE 10.4 mph - N/A   Clear
4:55 AM 54.5 °F 44.8 °F 70% 29.82 in 10.0 mi SE 9.2 mph - N/A   Clear
5:15 AM 54.7 °F 44.8 °F 69% 29.81 in 10.0 mi SE 10.4 mph - N/A   Clear
5:35 AM 54.7 °F 44.8 °F 69% 29.81 in 10.0 mi SE 9.2 mph - N/A   Clear
5:55 AM 54.3 °F 44.8 °F 70% 29.79 in 10.0 mi SE 11.5 mph - N/A   Clear
6:15 AM 54.5 °F 44.8 °F 70% 29.79 in 10.0 mi SSE 9.2 mph - N/A   Clear
6:35 AM 54.0 °F 45.0 °F 72% 29.79 in 10.0 mi SE 9.2 mph - N/A   Clear
6:55 AM 53.2 °F 45.0 °F 73% 29.79 in 10.0 mi SE 9.2 mph - N/A   Clear
7:15 AM 53.2 °F 45.0 °F 73% 29.78 in 10.0 mi SE 9.2 mph - N/A   Clear
7:35 AM 53.1 °F 45.0 °F 74% 29.78 in 10.0 mi SE 10.4 mph - N/A   Clear
7:55 AM 53.6 °F 45.5 °F 74% 29.78 in 10.0 mi SE 11.5 mph - N/A   Clear
8:15 AM 54.7 °F 45.9 °F 72% 29.78 in 10.0 mi SE 10.4 mph - N/A   Clear
8:35 AM 55.9 °F 46.0 °F 69% 29.77 in 10.0 mi SE 11.5 mph - N/A   Clear
8:55 AM 58.1 °F 46.6 °F 65% 29.77 in 10.0 mi SSE 15.0 mph - N/A   Clear
9:15 AM 57.7 °F 46.8 °F 67% 29.77 in 10.0 mi SSE 12.7 mph - N/A   Clear
9:35 AM 58.6 °F 47.3 °F 66% 29.76 in 10.0 mi SSE 12.7 mph 17.3 mph N/A   Clear
9:55 AM 59.9 °F 47.5 °F 64% 29.76 in 10.0 mi SSE 12.7 mph 19.6 mph N/A   Clear
10:15 AM 60.8 °F 48.2 °F 63% 29.75 in 10.0 mi SSE 13.8 mph 19.6 mph N/A   Clear
10:35 AM 62.6 °F 48.7 °F 60% 29.75 in 10.0 mi SSE 15.0 mph 19.6 mph N/A   Clear
10:55 AM 64.6 °F 49.1 °F 57% 29.74 in 10.0 mi SSE 12.7 mph 21.9 mph N/A   Clear
11:15 AM 64.6 °F 48.4 °F 56% 29.74 in 10.0 mi South 17.3 mph 23.0 mph N/A   Clear
11:35 AM 65.3 °F 48.6 °F 55% 29.74 in 10.0 mi South 18.4 mph 25.3 mph N/A   Clear
11:55 AM 66.7 °F 48.9 °F 53% 29.73 in 10.0 mi South 13.8 mph 24.2 mph N/A   Clear
12:15 PM 67.5 °F 48.9 °F 51% 29.72 in 10.0 mi South 19.6 mph 25.3 mph N/A   Clear
12:35 PM 68.7 °F 48.9 °F 49% 29.72 in 10.0 mi South 23.0 mph 27.6 mph N/A   Clear
12:55 PM 70.0 °F 49.8 °F 49% 29.72 in 10.0 mi South 19.6 mph 28.8 mph N/A   Clear
1:15 PM 70.9 °F 48.9 °F 46% 29.72 in 10.0 mi South 20.7 mph 29.9 mph N/A   Clear
1:35 PM 70.7 °F 48.9 °F 46% 29.71 in 10.0 mi South 16.1 mph 24.2 mph N/A   Clear
1:55 PM 71.6 °F 49.5 °F 45% 29.70 in 10.0 mi SSE 19.6 mph 25.3 mph N/A   Clear
2:15 PM 70.9 °F 49.3 °F 46% 29.70 in 10.0 mi South 20.7 mph 27.6 mph N/A   Clear
2:35 PM 72.3 °F 49.3 °F 44% 29.70 in 10.0 mi South 17.3 mph 24.2 mph N/A   Clear
2:55 PM 72.7 °F 49.6 °F 44% 29.69 in 10.0 mi South 18.4 mph 24.2 mph N/A   Clear
3:15 PM 72.0 °F 48.9 °F 44% 29.69 in 10.0 mi South 13.8 mph 26.5 mph N/A   Clear
3:35 PM 72.7 °F 48.9 °F 43% 29.69 in 10.0 mi South 16.1 mph - N/A   Clear
3:55 PM 72.7 °F 48.6 °F 42% 29.69 in 10.0 mi South 17.3 mph 23.0 mph N/A   Clear
4:15 PM 72.5 °F 48.4 °F 42% 29.69 in 10.0 mi South 16.1 mph 24.2 mph N/A   Clear
4:35 PM 72.7 °F 48.2 °F 42% 29.69 in 10.0 mi South 16.1 mph 24.2 mph N/A   Clear
4:55 PM 72.5 °F 47.5 °F 41% 29.69 in 10.0 mi South 17.3 mph 23.0 mph N/A   Clear
5:15 PM 72.1 °F 47.7 °F 42% 29.69 in 10.0 mi South 12.7 mph 23.0 mph N/A   Clear
5:35 PM 71.6 °F 47.8 °F 43% 29.69 in 10.0 mi South 15.0 mph 19.6 mph N/A   Clear
5:55 PM 70.7 °F 47.5 °F 44% 29.69 in 10.0 mi South 11.5 mph 18.4 mph N/A   Clear
6:15 PM 69.4 °F 48.0 °F 46% 29.69 in 10.0 mi SSE 10.4 mph - N/A   Clear
6:35 PM 67.8 °F 48.2 °F 49% 29.69 in 10.0 mi SSE 9.2 mph - N/A   Clear
6:55 PM 66.6 °F 47.7 °F 51% 29.70 in 10.0 mi SSE 6.9 mph - N/A   Clear
7:15 PM 64.9 °F 47.5 °F 53% 29.70 in 10.0 mi SE 6.9 mph - N/A   Clear
7:35 PM 63.5 °F 47.3 °F 56% 29.70 in 10.0 mi SE 8.1 mph - N/A   Clear
7:55 PM 62.6 °F 46.9 °F 57% 29.70 in 10.0 mi SE 8.1 mph - N/A   Clear
8:15 PM 63.0 °F 46.8 °F 55% 29.71 in 10.0 mi SE 8.1 mph - N/A   Clear
8:35 PM 63.1 °F 46.6 °F 55% 29.71 in 10.0 mi SE 9.2 mph - N/A   Clear
8:55 PM 63.1 °F 46.8 °F 55% 29.71 in 10.0 mi SE 9.2 mph - N/A   Clear
9:15 PM 62.4 °F 46.6 °F 56% 29.71 in 10.0 mi SE 8.1 mph - N/A   Clear
9:35 PM 62.2 °F 46.9 °F 57% 29.71 in 10.0 mi SE 9.2 mph - N/A   Clear
9:55 PM 62.2 °F 46.9 °F 57% 29.71 in 10.0 mi SE 9.2 mph - N/A   Clear
10:15 PM 62.1 °F 46.9 °F 58% 29.71 in 10.0 mi SE 8.1 mph - N/A   Clear
10:35 PM 61.9 °F 47.1 °F 58% 29.71 in 10.0 mi SE 6.9 mph - N/A   Clear
10:55 PM 61.2 °F 47.3 °F 60% 29.71 in 10.0 mi SE 6.9 mph - N/A   Clear
11:15 PM 61.7 °F 47.5 °F 60% 29.70 in 10.0 mi SE 5.8 mph - N/A   Clear
11:35 PM 61.2 °F 47.7 °F 61% 29.70 in 10.0 mi SE 6.9 mph - N/A   Clear
11:55 PM 61.0 °F 47.7 °F 62% 29.70 in 10.0 mi SE 6.9 mph - N/A   Clear